TimePDT,TemperatureF,Dew PointF,Humidity,Sea Level PressureIn,VisibilityMPH,Wind Direction,Wind SpeedMPH,Gust SpeedMPH,PrecipitationIn,Events,Conditions,WindDirDegrees,DateUTC
12:56 AM,60.1,55.9,86,30.01,9.0,Calm,Calm,-,N/A,,Overcast,0,2012-10-31 07:56:00
1:21 AM,-9999,-9999,N/A,30.01,10.0,Calm,Calm,-,N/A,,Overcast,0,2012-10-31 08:21:00
1:56 AM,60.1,55.9,86,30.01,10.0,Calm,Calm,-,N/A,,Overcast,0,2012-10-31 08:56:00
2:16 AM,60.8,55.4,82,30.01,10.0,Calm,Calm,-,N/A,,Overcast,0,2012-10-31 09:16:00
2:56 AM,60.1,55.9,86,30.02,10.0,Calm,Calm,-,N/A,,Overcast,0,2012-10-31 09:56:00
3:56 AM,59.0,57.0,93,30.01,4.0,Calm,Calm,-,N/A,,Overcast,0,2012-10-31 10:56:00
4:07 AM,59.0,57.2,94,29.99,5.0,Calm,Calm,-,N/A,,Overcast,0,2012-10-31 11:07:00
4:52 AM,60.8,55.4,82,30.00,9.0,South,3.5,-,N/A,,Overcast,170,2012-10-31 11:52:00
4:56 AM,60.1,55.9,86,30.00,9.0,Calm,Calm,-,N/A,,Overcast,0,2012-10-31 11:56:00
5:56 AM,60.1,55.0,83,30.00,10.0,SE,4.6,-,N/A,,Overcast,140,2012-10-31 12:56:00
6:56 AM,60.1,54.0,80,30.01,10.0,SSW,3.5,-,N/A,,Overcast,200,2012-10-31 13:56:00
7:56 AM,59.0,53.1,81,30.02,10.0,SE,3.5,-,N/A,,Overcast,130,2012-10-31 14:56:00
8:56 AM,60.1,54.0,80,30.04,10.0,SE,4.6,-,N/A,,Overcast,140,2012-10-31 15:56:00
9:42 AM,59.0,53.6,82,30.04,10.0,SSE,5.8,-,N/A,,Scattered Clouds,150,2012-10-31 16:42:00
9:56 AM,60.1,53.1,78,30.05,10.0,SSE,5.8,-,N/A,,Clear,150,2012-10-31 16:56:00
10:56 AM,61.0,53.1,75,30.05,10.0,SE,5.8,-,N/A,,Clear,130,2012-10-31 17:56:00
11:56 AM,63.0,53.1,70,30.05,10.0,SE,6.9,-,N/A,,Clear,140,2012-10-31 18:56:00
12:56 PM,63.0,53.1,70,30.04,10.0,SE,6.9,-,N/A,,Clear,130,2012-10-31 19:56:00
1:26 PM,64.4,53.6,68,30.01,10.0,SE,5.8,-,N/A,,Overcast,130,2012-10-31 20:26:00
1:56 PM,64.0,52.0,65,30.02,10.0,South,4.6,-,N/A,,Overcast,180,2012-10-31 20:56:00
2:56 PM,64.9,53.1,65,30.00,10.0,SE,6.9,-,N/A,,Overcast,140,2012-10-31 21:56:00
3:21 PM,64.4,53.6,68,30.00,10.0,SE,8.1,-,N/A,,Overcast,140,2012-10-31 22:21:00
3:56 PM,64.9,52.0,63,30.01,10.0,Calm,Calm,-,N/A,,Overcast,0,2012-10-31 22:56:00
4:56 PM,64.0,53.1,67,30.01,10.0,ESE,4.6,-,N/A,,Partly Cloudy,110,2012-10-31 23:56:00
5:56 PM,63.0,53.1,70,30.01,10.0,SSE,5.8,-,N/A,,Overcast,160,2012-11-01 00:56:00
6:56 PM,63.0,53.1,70,30.01,10.0,SE,4.6,-,N/A,,Overcast,140,2012-11-01 01:56:00
7:56 PM,63.0,53.1,70,30.01,10.0,SE,4.6,-,N/A,,Overcast,130,2012-11-01 02:56:00
8:56 PM,63.0,53.1,70,30.00,10.0,Variable,3.5,-,N/A,,Overcast,0,2012-11-01 03:56:00
9:56 PM,62.1,54.0,75,30.01,10.0,SSE,3.5,-,0.00,,Overcast,150,2012-11-01 04:56:00
10:56 PM,62.1,54.0,75,30.01,10.0,Calm,Calm,-,0.00,Rain,Light Rain,0,2012-11-01 05:56:00
11:14 PM,62.6,53.6,72,30.01,10.0,Calm,Calm,-,0.00,Rain,Light Rain,0,2012-11-01 06:14:00
11:56 PM,61.0,55.9,83,30.02,10.0,Calm,Calm,-,0.01,Rain,Light Rain,0,2012-11-01 06:56:00